Location: Deneb Observatory
(47.2267°N, 100.4953°W)
Time: 17:25:32
(UTC-05:00)

Amateur Radio Satellites - All Passes

Search period start: 22 October 2014 16:55
Search period end: 23 October 2014 16:55
Location: Deneb Observatory, 47.2267°N, 100.4953°W

Satellite Date Start Highest point End Downlink Frequencies (MHz)
Time Altitude Azimuth
KITSAT 1 22 Oct 16:56:00 17:02:32 26° 337° (NNW) 17:09:06 435.175 FM
ISS 22 Oct 16:59:35 17:02:48 44° 348° (NNW) 17:06:03 145.800 FM
JAS-2 22 Oct 17:10:41 17:15:52 31° 59° (ENE) 17:21:37 435.800 - 435.900 CW/SSB, 435.910 FM
UOSAT-12 22 Oct 17:12:08 17:16:46 63° 311° (NW) 17:21:29 437.025 FM, 437.400 FM
Hamsat 22 Oct 17:13:09 17:15:10 13° 60° (ENE) 17:17:11 145.90 MHz
Saudisat 1A 22 Oct 17:17:39 17:22:03 59° 48° (NE) 17:26:25 436.775 MHz
SO-50 22 Oct 17:17:56 17:20:46 16° 335° (NNW) 17:23:39 436.795 FM
Uosat F 22 Oct 17:33:06 17:38:03 59° 258° (WSW) 17:43:03 435.120 FM
AO-7 22 Oct 18:21:53 18:28:57 31° 266° (W) 18:36:05 29.400 - 29.500 MHz
ISS 22 Oct 18:36:45 18:39:56 40° 8° (N) 18:43:07 145.800 FM
SO-67 22 Oct 18:37:30 18:38:18 11° 62° (ENE) 18:39:07 435.3500 MHz FM
Hamsat 22 Oct 18:46:22 18:50:34 74° 258° (WSW) 18:54:47 145.90 MHz
UOSAT-12 22 Oct 18:54:45 18:57:51 17° 333° (NNW) 19:00:58 437.025 FM, 437.400 FM
JAS-2 22 Oct 18:54:47 19:00:33 55° 262° (W) 19:07:08 435.800 - 435.900 CW/SSB, 435.910 FM
KITSAT 1 22 Oct 18:55:25 19:01:09 20° 7° (N) 19:06:53 435.175 FM
Saudisat 1A 22 Oct 18:58:02 19:01:14 20° 247° (WSW) 19:04:25 436.775 MHz
OPAL 22 Oct 19:02:40 19:07:38 66° 105° (ESE) 19:12:33 ?
STRAND 1 22 Oct 19:07:01 19:08:12 11° 85° (E) 19:09:23 ?
HO-68 22 Oct 19:53:23 19:58:35 22° 51° (NE) 20:03:48 435.675 MHz FM
AO-40 22 Oct 20:03:33 02:11:35 38° 179° (S) 04:54:08 Beacon 2401.320
SO-67 22 Oct 20:07:23 20:10:48 63° 259° (W) 20:14:14 435.3500 MHz FM
ISS 22 Oct 20:13:29 20:16:51 78° 207° (SSW) 20:20:11 145.800 FM
OPAL 22 Oct 20:42:30 20:46:04 20° 303° (WNW) 20:49:36 ?
STRAND 1 22 Oct 20:43:03 20:48:15 78° 104° (ESE) 20:53:24 ?
SO-50 22 Oct 20:43:10 20:46:01 15° 25° (NNE) 20:48:54 436.795 FM
KITSAT 1 22 Oct 20:51:53 20:59:16 36° 35° (NE) 21:06:35 435.175 FM
Oscar 11 22 Oct 20:56:21 20:57:30 11° 57° (ENE) 20:58:40 145.825 FM, Beacon 2401.500 USB
ZACube-1 22 Oct 21:37:39 21:40:00 14° 59° (ENE) 21:42:20 437.345 MHz
HO-68 22 Oct 21:38:13 21:45:24 88° 72° (ENE) 21:52:38 435.675 MHz FM
UKube-1 22 Oct 21:45:23 21:49:22 36° 67° (ENE) 21:53:22 145.840 MHz, 145.915 MHz
ISS 22 Oct 21:51:11 21:53:05 14° 225° (SW) 21:54:59 145.800 FM
RS-15 22 Oct 21:53:54 22:00:54 20° 98° (E) 22:07:49 29.354 - 29.394 USB, Beacon 29.352 USB
UOSAT-12 22 Oct 22:19:42 22:22:15 14° 22° (NNE) 22:24:48 437.025 FM, 437.400 FM
FUNcube-1 22 Oct 22:20:52 22:24:57 33° 67° (ENE) 22:29:00 145.950 - 145.970 MHz USB
SO-50 22 Oct 22:22:56 22:27:39 52° 47° (NE) 22:32:25 436.795 FM
STRAND 1 22 Oct 22:23:29 22:26:50 18° 303° (WNW) 22:30:11 ?
Oscar 11 22 Oct 22:28:38 22:32:58 83° 75° (ENE) 22:37:19 145.825 FM, Beacon 2401.500 USB
KITSAT 1 22 Oct 22:47:20 22:55:25 77° 239° (WSW) 23:03:27 435.175 FM
ZACube-1 22 Oct 23:11:11 23:15:48 83° 256° (WSW) 23:20:22 437.345 MHz
UKube-1 22 Oct 23:22:00 23:25:38 26° 265° (W) 23:29:17 145.840 MHz, 145.915 MHz
HO-68 22 Oct 23:29:05 23:34:01 20° 271° (W) 23:39:00 435.675 MHz FM
FUNcube-1 22 Oct 23:57:16 00:01:19 30° 265° (W) 00:05:21 145.950 - 145.970 MHz USB
UOSAT-12 22 Oct 23:59:01 00:03:35 45° 45° (NE) 00:08:05 437.025 FM, 437.400 FM
RS-15 23 Oct 00:00:19 00:11:14 75° 121° (ESE) 00:22:09 29.354 - 29.394 USB, Beacon 29.352 USB
SO-50 23 Oct 00:03:57 00:07:59 27° 245° (WSW) 00:12:03 436.795 FM
Oscar 11 23 Oct 00:08:37 00:09:45 11° 273° (W) 00:10:53 145.825 FM, Beacon 2401.500 USB
KITSAT 1 23 Oct 00:44:36 00:49:30 18° 260° (W) 00:54:24 435.175 FM
MaSat-1 23 Oct 01:06:40 01:10:38 43° 114° (ESE) 01:14:14 437.345 MHz
UOSAT-12 23 Oct 01:39:29 01:43:35 30° 244° (WSW) 01:47:37 437.025 FM, 437.400 FM
Oscar 16 23 Oct 02:05:03 02:08:09 16° 89° (E) 02:11:14 437.025 USB, Beacon 2401.1428
JAS-1B 23 Oct 02:05:57 02:10:30 19° 91° (E) 02:15:32 435.800 - 435.900 CW/SSB
RS-15 23 Oct 02:14:11 02:24:30 45° 329° (NNW) 02:34:58 29.354 - 29.394 USB, Beacon 29.352 USB
AO-Echo 23 Oct 02:18:13 02:20:01 12° 85° (E) 02:21:50 ?
ITAMSAT 1 23 Oct 02:28:52 02:29:04 10° 85° (E) 02:29:15 435.822 SSB
MaSat-1 23 Oct 02:43:19 02:46:27 22° 310° (NW) 02:49:22 437.345 MHz
Oscar 19 23 Oct 02:57:37 03:02:32 44° 99° (E) 03:07:24 437.125 CW, 437.150 USB
Oscar 10/S400 23 Oct 03:06:17 03:40:17 12° 247° (WSW) 04:31:42 145.825 - 145.975 CW/USB, Beacon 145.810 USB
AO-27 23 Oct 03:10:27 03:14:49 26° 93° (E) 03:19:08 436.795 MHz FM
Oscar 16 23 Oct 03:42:57 03:48:05 74° 287° (WNW) 03:53:11 437.025 USB, Beacon 2401.1428
AO-Echo 23 Oct 03:54:17 03:59:36 79° 104° (ESE) 04:04:56 ?
JAS-1B 23 Oct 03:55:18 04:01:42 85° 287° (WNW) 04:09:20 435.800 - 435.900 CW/SSB
Uribyol 2 23 Oct 03:58:44 04:03:58 70° 103° (ESE) 04:09:09 436.500 FM
ITAMSAT 1 23 Oct 04:04:13 04:09:29 73° 103° (ESE) 04:14:41 435.822 SSB
PCSat 23 Oct 04:08:14 04:11:12 15° 104° (ESE) 04:14:11 145.825 MHz
Gurwin Techsat 1B 23 Oct 04:12:08 04:17:18 48° 99° (E) 04:22:25 435.225 FM
TMSAT-1 23 Oct 04:24:43 04:29:51 47° 99° (E) 04:34:56 436.925 FM
AO-7 23 Oct 04:27:03 04:32:05 17° 87° (E) 04:37:06 29.400 - 29.500 MHz
RS-15 23 Oct 04:30:58 04:40:24 31° 2° (N) 04:50:03 29.354 - 29.394 USB, Beacon 29.352 USB
Oscar 19 23 Oct 04:37:22 04:41:40 28° 297° (WNW) 04:45:57 437.125 CW, 437.150 USB
OPAL 23 Oct 04:43:03 04:47:17 26° 60° (ENE) 04:51:28 ?
AO-27 23 Oct 04:49:32 04:54:33 48° 292° (WNW) 04:59:33 436.795 MHz FM
Oscar 16 23 Oct 05:24:25 05:26:34 13° 306° (NW) 05:28:43 437.025 USB, Beacon 2401.1428
Sapphire 23 Oct 05:25:47 05:31:04 58° 117° (ESE) 05:36:24 437.095 MHz 1200 baud AX-25 AFSK
AO-Echo 23 Oct 05:34:15 05:37:46 18° 302° (WNW) 05:41:17 ?
Uosat F 23 Oct 05:37:46 05:42:21 34° 96° (E) 05:46:54 435.120 FM
Uribyol 2 23 Oct 05:39:14 05:42:55 20° 302° (WNW) 05:46:36 436.500 FM
ITAMSAT 1 23 Oct 05:44:49 05:48:25 19° 302° (WNW) 05:52:00 435.822 SSB
JAS-1B 23 Oct 05:47:35 05:51:42 18° 305° (NW) 05:56:13 435.800 - 435.900 CW/SSB
PCSat 23 Oct 05:48:24 05:53:50 90° 124° (ESE) 05:59:18 145.825 MHz
Gurwin Techsat 1B 23 Oct 05:52:35 05:57:01 28° 298° (WNW) 06:01:27 435.225 FM
JAS-2 23 Oct 06:00:07 06:06:16 25° 89° (E) 06:12:28 435.800 - 435.900 CW/SSB, 435.910 FM
TMSAT-1 23 Oct 06:05:05 06:09:33 28° 297° (WNW) 06:14:00 436.925 FM
AO-7 23 Oct 06:17:53 06:26:15 76° 107° (ESE) 06:34:35 29.400 - 29.500 MHz
OPAL 23 Oct 06:20:54 06:25:54 50° 258° (WSW) 06:30:52 ?
STRAND 1 23 Oct 06:24:29 06:28:30 24° 61° (ENE) 06:32:33 ?
Hamsat 23 Oct 06:29:59 06:32:31 16° 90° (E) 06:35:04 145.90 MHz
RS-15 23 Oct 06:45:26 06:56:06 50° 35° (NE) 07:07:07 29.354 - 29.394 USB, Beacon 29.352 USB
Sapphire 23 Oct 07:10:06 07:14:50 30° 318° (NW) 07:19:37 437.095 MHz 1200 baud AX-25 AFSK
Uosat F 23 Oct 07:16:34 07:21:09 35° 295° (WNW) 07:25:42 435.120 FM
PCSat 23 Oct 07:33:50 07:38:00 22° 324° (NW) 07:42:12 145.825 MHz
JAS-2 23 Oct 07:44:16 07:51:57 81° 287° (WNW) 07:59:49 435.800 - 435.900 CW/SSB, 435.910 FM
STRAND 1 23 Oct 08:02:20 08:07:21 55° 259° (W) 08:12:26 ?
Hamsat 23 Oct 08:04:43 08:08:49 54° 288° (WNW) 08:12:55 145.90 MHz
AO-7 23 Oct 08:11:25 08:18:21 31° 308° (NW) 08:25:19 29.400 - 29.500 MHz
RS-15 23 Oct 08:58:06 09:09:05 67° 241° (WSW) 09:20:31 29.354 - 29.394 USB, Beacon 29.352 USB
Sapphire 23 Oct 08:58:35 09:00:08 11° 343° (NNW) 09:01:42 437.095 MHz 1200 baud AX-25 AFSK
SO-67 23 Oct 09:00:24 09:03:52 83° 283° (WNW) 09:07:19 435.3500 MHz FM
HO-68 23 Oct 09:04:58 09:08:16 13° 84° (E) 09:11:32 435.675 MHz FM
Saudisat 1A 23 Oct 09:06:01 09:10:15 50° 121° (ESE) 09:14:31 436.775 MHz
MaSat-1 23 Oct 09:15:38 09:17:00 13° 45° (NE) 09:18:19 437.345 MHz
JAS-2 23 Oct 09:30:30 09:35:57 22° 307° (NW) 09:41:34 435.800 - 435.900 CW/SSB, 435.910 FM
Oscar 11 23 Oct 10:15:04 10:16:49 12° 88° (E) 10:18:33 145.825 FM, Beacon 2401.500 USB
Saudisat 1A 23 Oct 10:46:14 10:50:02 28° 321° (NW) 10:53:53 436.775 MHz
HO-68 23 Oct 10:50:03 10:57:16 70° 104° (ESE) 11:04:26 435.675 MHz FM
MaSat-1 23 Oct 10:50:26 10:52:53 31° 248° (WSW) 10:55:09 437.345 MHz
ZACube-1 23 Oct 10:58:49 11:01:20 15° 89° (E) 11:03:49 437.345 MHz
UKube-1 23 Oct 11:06:11 11:10:21 42° 99° (E) 11:14:29 145.840 MHz, 145.915 MHz
PCSat 23 Oct 11:08:17 11:09:49 11° 17° (NNE) 11:11:20 145.825 MHz
RS-15 23 Oct 11:13:00 11:19:15 17° 264° (W) 11:25:38 29.354 - 29.394 USB, Beacon 29.352 USB
FUNcube-1 23 Oct 11:42:52 11:46:57 41° 98° (E) 11:50:56 145.950 - 145.970 MHz USB
Oscar 11 23 Oct 11:49:12 11:53:32 74° 285° (WNW) 11:57:49 145.825 FM, Beacon 2401.500 USB
Sapphire 23 Oct 12:27:47 12:31:58 22° 36° (NE) 12:36:09 437.095 MHz 1200 baud AX-25 AFSK
Saudisat 1A 23 Oct 12:30:49 12:31:05 10° 344° (NNW) 12:31:21 436.775 MHz
ZACube-1 23 Oct 12:33:55 12:38:09 57° 288° (WNW) 12:42:17 437.345 MHz
HO-68 23 Oct 12:38:29 12:44:26 29° 305° (NW) 12:50:22 435.675 MHz FM
Oscar 19 23 Oct 12:41:18 12:44:05 15° 56° (NE) 12:46:52 437.125 CW, 437.150 USB
UKube-1 23 Oct 12:42:52 12:46:19 23° 297° (WNW) 12:49:45 145.840 MHz, 145.915 MHz
PCSat 23 Oct 12:50:20 12:55:06 30° 42° (NE) 12:59:51 145.825 MHz
JAS-1B 23 Oct 12:57:00 13:00:58 19° 56° (NE) 13:04:53 435.800 - 435.900 CW/SSB
Oscar 10/S400 23 Oct 13:11:33 13:24:22 18° 147° (SSE) 13:36:20 145.825 - 145.975 CW/USB, Beacon 145.810 USB
KITSAT 1 23 Oct 13:18:36 13:26:18 51° 114° (ESE) 13:34:01 435.175 FM
FUNcube-1 23 Oct 13:19:47 13:23:05 22° 296° (WNW) 13:26:19 145.950 - 145.970 MHz USB
Oscar 16 23 Oct 13:24:33 13:29:06 33° 65° (ENE) 13:33:40 437.025 USB, Beacon 2401.1428
AO-Echo 23 Oct 13:33:26 13:37:03 21° 60° (ENE) 13:40:46 ?
Uribyol 2 23 Oct 13:41:59 13:45:59 23° 60° (ENE) 13:49:59 436.500 FM
AO-7 23 Oct 13:44:09 13:45:52 11° 30° (NNE) 13:47:35 29.400 - 29.500 MHz
ITAMSAT 1 23 Oct 13:47:29 13:51:34 24° 61° (ENE) 13:55:40 435.822 SSB
Gurwin Techsat 1B 23 Oct 13:59:02 14:02:24 17° 57° (ENE) 14:05:46 435.225 FM
Sapphire 23 Oct 14:10:41 14:16:10 89° 57° (ENE) 14:21:36 437.095 MHz 1200 baud AX-25 AFSK
TMSAT-1 23 Oct 14:11:26 14:14:41 17° 56° (ENE) 14:17:57 436.925 FM
Oscar 19 23 Oct 14:17:31 14:22:41 87° 75° (ENE) 14:27:52 437.125 CW, 437.150 USB
SO-50 23 Oct 14:20:59 14:25:19 49° 121° (ESE) 14:29:49 436.795 FM
AO-27 23 Oct 14:31:27 14:36:30 53° 69° (ENE) 14:41:36 436.795 MHz FM
PCSat 23 Oct 14:33:32 14:38:52 58° 242° (WSW) 14:44:10 145.825 MHz
ISS 23 Oct 14:33:56 14:37:01 35° 144° (SE) 14:40:06 145.800 FM
JAS-1B 23 Oct 14:45:11 14:51:08 72° 256° (WSW) 14:56:50 435.800 - 435.900 CW/SSB
Oscar 16 23 Oct 15:03:36 15:08:23 38° 263° (W) 15:13:11 437.025 USB, Beacon 2401.1428
AO-Echo 23 Oct 15:10:32 15:15:22 60° 259° (W) 15:20:24 ?
KITSAT 1 23 Oct 15:13:59 15:21:47 50° 317° (NW) 15:29:37 435.175 FM
Uosat F 23 Oct 15:19:47 15:21:04 11° 52° (NE) 15:22:22 435.120 FM
Uribyol 2 23 Oct 15:19:54 15:25:03 59° 259° (WSW) 15:30:15 436.500 FM
ITAMSAT 1 23 Oct 15:25:36 15:30:42 56° 259° (W) 15:35:52 435.822 SSB
AO-7 23 Oct 15:28:59 15:36:12 35° 54° (NE) 15:43:26 29.400 - 29.500 MHz
Gurwin Techsat 1B 23 Oct 15:36:23 15:41:42 83° 256° (WSW) 15:47:04 435.225 FM
TMSAT-1 23 Oct 15:48:36 15:53:55 86° 255° (WSW) 15:59:16 436.925 FM
Saudisat 1A 23 Oct 15:50:43 15:54:05 21° 33° (NNE) 15:57:26 436.775 MHz
UOSAT-12 23 Oct 15:52:53 15:57:13 40° 119° (ESE) 16:01:38 437.025 FM, 437.400 FM
Sapphire 23 Oct 15:55:47 15:58:49 15° 256° (WSW) 16:01:50 437.095 MHz 1200 baud AX-25 AFSK
Oscar 19 23 Oct 16:00:15 16:02:44 13° 273° (W) 16:05:13 437.125 CW, 437.150 USB
SO-50 23 Oct 16:02:05 16:06:06 30° 321° (NW) 16:10:15 436.795 FM
ISS 23 Oct 16:10:20 16:13:38 55° 343° (NNW) 16:16:56 145.800 FM
AO-27 23 Oct 16:12:14 16:16:20 23° 268° (W) 16:20:28 436.795 MHz FM
JAS-2 23 Oct 16:18:34 16:21:53 15° 47° (NE) 16:25:23 435.800 - 435.900 CW/SSB, 435.910 FM
